Regional Weather Roundup
Issued by NWS

Home | Current Version | Previous Version | Graphics & Text | Print | Product List | Glossary On
Versions: 1 2 3 4 5 6 7 8 9 10 11 12 13 14 15 16 17 18 19 20 21 22 23 24 25 26 27 28 29 30 31 32 33 34 35 36 37 38 39 40 41 42 43 44 45 46 47 48 49 50
000
ASUS45 KSLC 220010
RWRUT

UTAH REGIONAL WEATHER ROUNDUP
NATIONAL WEATHER SERVICE SALT LAKE CITY UT
500 PM MST TUE NOV 21 2017

UTZ001>011-023>025-220100-

NORTHERN UTAH

CITY           SKY/WX    TMP DP  RH WIND       PRES   REMARKS
BRIGHAM CITY   MOCLDY    53  37  55 CALM      30.35S
HILL AFB       MOCLDY    53  38  57 CALM      30.35R
LOGAN          PTCLDY    52  40  63 MISG      30.33R
OGDEN          MOCLDY    54  39  57 CALM      30.34R
SALT LAKE CITY MOCLDY    58  42  55 CALM      30.33S
TOOELE VALLEY  PTCLDY    54  41  62 CALM      30.34S
WENDOVER       PTCLDY    53  37  54 CALM      30.34R
HEBER CITY       N/A     50  36  57 SW3       30.35S
WEST JORDAN    PTCLDY    53  43  70 NW6       30.36R

$$

UTZ011>015-024>027-220100-

CENTRAL/NORTHEAST UTAH

CITY           SKY/WX    TMP DP  RH WIND       PRES   REMARKS
PROVO AIRPORT  CLEAR     52  37  56 N3        30.35S
MOAB/CANYONLAN CLEAR     52  13  21 CALM      30.31S
DELTA          CLEAR     55  30  38 CALM      30.36S
PRICE          CLEAR     52  21  29 E7        30.35R
RICHFIELD      CLEAR     54  36  50 CALM      30.38R
ROOSEVELT      CLEAR     54  27  35 CALM      30.34R
VERNAL         CLEAR     51  29  42 CALM      30.31R

$$

UTZ013>016-019>022-027-220100-

SOUTHERN UTAH

CITY           SKY/WX    TMP DP  RH WIND       PRES   REMARKS
BRYCE CANYON   CLEAR     51  31  46 NW8       30.43R
CEDAR CITY     PTCLDY    58  34  40 N6        30.33S
MILFORD        PTCLDY    59  38  45 N9        30.34R
ST GEORGE      CLEAR     63  12  13 CALM      30.23F
HANKSVILLE     CLEAR     54  14  20 N6        30.33S
KANAB          CLEAR     63  30  29 E5        30.33R
BLANDING         N/A     55  31  39 NW9       30.38R

$$

REGIONAL REPORTS     COLORADO/ARIZONA

CITY           SKY/WX    TMP DP  RH WIND       PRES   REMARKS
CRAIG, CO      CLOUDY    42  33  70 S7        30.35R
GRAND JUNCTION CLOUDY    51  23  33 W8        30.32R
RIFLE, CO      CLOUDY    46  32  58 SW3       30.35S
MONTROSE, CO   CLOUDY    51  26  37 E3        30.35S
CORTEZ, CO     CLEAR     57  29  34 NW9       30.30R
COLORADO CITY    N/A     63  27  25 NW7       30.32S
PAGE, AZ       PTCLDY    57  18  21 CALM      30.29F
GRAND CANYON   MOCLDY    57  21  24 NE8       30.38R
KINGMAN, AZ    MOCLDY    69  18  14 NE5       30.22R
FLAGSTAFF, AZ  PTCLDY    55  25  31 E15       30.37R

$$

REGIONAL REPORTS    NEVADA/IDAHO/WYOMING

CITY           SKY/WX    TMP DP  RH WIND       PRES   REMARKS
LAS VEGAS, NV  MOCLDY    71  19  14 CALM      30.18F
ELY, NY        MOCLDY    58  36  43 NE5       30.36S
ELKO, NV       CLOUDY    58  44  60 SE3       30.33S
POCATELLO, ID  CLOUDY    45  43  93 N5        30.33S
BURLEY, ID     LGT RAIN  52  48  86 CALM      30.30R
FORT BRIDGER,  CLOUDY    43  38  80 NW6       30.42R
EVANSTON, WY   CLOUDY    42  37  82 SW9       30.38S
ROCK SPRINGS,  CLOUDY    43  34  70 W20       30.35R
KEMMERER, WY   CLOUDY    37  34  87 W12       30.38S WCI  30

$$



USA.gov is the U.S. government's official web portal to all federal, state and local government web resources and services.